Participated 5 times
Between 1983 and 1990
Paul Haghedooren, Belgium
Tour de France 2026 starts from Edinburgh, Scotland in

Stats and Facts from
Tour de France.

2026   2025   2024   2023  2022  2021  2020  2019   2018  2017   2016   2015  2014  2013   2012   2011  2010   2009   2008   2007   2006   2005   2004   2003   2002   2001   2000   1999   1998   1997  1996   1995   1994   1993   1992  1991   1990   1989   1988   1987   1986   1985   1984   1983  1982  1981   1980   1979  1978  1977   1976  1975  1974  1973   1972   1971   1970  1969   1968   1967   1966   1965  1964  1963   1962   1961   1960   1959   1958   1957  1956   1955   1954   1953   1952  1951  1950  1949   1948  1947  1939   1938   1937   1936   1935   1934   1933  1932   1931   1930  1929   1928   1927   1926  1925  1924  1923   1922   1921   1920   1919  1914   1913   1912   1911   1910  1909   1908   1907   1906  1905  1904   1903 

Tourstats
Sitemap

After stage 21 - 2026:
 16451 starters.
  5513 different riders.
  689 teams.
  2419 stages.
  470 restdays.
  469752.50 km.
  5946 abandoned riders.

Click map for 1990 route.
Facts from Tour de France 1990
  |   Stages.  |   Stage winners.  |   Days in jerseys.  |   Teams.  |   All riders.  |   All riders by age.  |   All riders from.  |  

  |   Rookies.  |   Withdrawls.  |   Average speed.  |   GC.  |   Polka  |   Green  |   White  |   Summits. (In tour)  |   Miscellaneous.  |  

Stage 20 on July 21st. 1990
Pick a stage:  Pro  1  2  3  4  5  6  7  8  9  10  11  12  13  14  15  16  17  18  19  20  21  

After stage 20:    Greg LeMond  
  Lac de VassivièreLac de Vassivière | Dist: 45.50km. | Winner: Erik Breukink

Podium

Average speed for all riders in stage:  39,562 km./hr.

1
 Erik Breukink  PDM-Concorde01h 02' 40"=43,564  km/h

2
 Raúl Alcalá  PDM-Concorde01h 03' 08"+  00:00:28 =43,242  km/h

3
 Marino Lejarreta  O.N.C.E.01h 03' 18"+  00:00:38 =43,128  km/h

4  Miguel Indurain  Banesto01h 03' 20"+  00:00:40 =43,105  km/h

5  Greg LeMond  Z01h 03' 37"+  00:00:57 =42,913  km/h

6  Pello Ruiz Cabestany  O.N.C.E.01h 04' 08"+  00:01:28 =42,568  km/h

7  Dag Otto Lauritzen  7 Eleven-Hoonved01h 04' 41"+  00:02:01 =42,206  km/h

8  Pedro Delgado  Banesto01h 05' 01"+  00:02:21 =41,989  km/h

9  Philippe Louviot  Toshiba01h 05' 06"+  00:02:26 =41,935  km/h

10  Luc Leblanc  Castorama-Raleigh01h 05' 07"+  00:02:27 =41,925  km/h

11  Eduardo Chozas  O.N.C.E.01h 05' 07"+  00:02:27 =41,925  km/h

12  Paul Haghedooren  Histor-Sigma01h 05' 08"+  00:02:28 =41,914  km/h

13  Steve Bauer  7 Eleven-Hoonved01h 05' 32"+  00:02:52 =41,658  km/h

14  Gilles Delion  Helvetia-La Suisse01h 05' 41"+  00:03:01 =41,563  km/h

15  Gianni Bugno  Chateau d'Ax01h 05' 52"+  00:03:12 =41,447  km/h

16  Fabrice Philipot  Castorama-Raleigh01h 05' 58"+  00:03:18 =41,385  km/h

17  Claudio Chiappucci  Carrera Jeans-Vagabond01h 05' 58"+  00:03:18 =41,385  km/h

18  Brian Holm  Histor-Sigma01h 06' 02"+  00:03:22 =41,343  km/h

19  Roberto Conti  Ariostea01h 06' 13"+  00:03:33 =41,228  km/h

20  William Palacio  Ryalcao-Postobon01h 06' 22"+  00:03:42 =41,135  km/h

21  Johan Bruyneel  Lotto-Super Club01h 06' 31"+  00:03:51 =41,042  km/h

22  Stephen Hodge  O.N.C.E.01h 06' 36"+  00:03:56 =40,991  km/h

23  Viatcheslav Ekimov  Panasonic-Sportlife01h 06' 40"+  00:04:00 =40,950  km/h

24  Melchor Mauri  O.N.C.E.01h 06' 42"+  00:04:02 =40,930  km/h

25  Éric Boyer  Z01h 06' 45"+  00:04:05 =40,899  km/h

26  Fabio Parra  Kelme-Ibexpress01h 06' 47"+  00:04:07 =40,878  km/h

27  Michel Dernies  Weinmann-La Suisse-S.M.M. Uster01h 06' 48"+  00:04:08 =40,868  km/h

28  Tony Rominger  Chateau d'Ax01h 06' 52"+  00:04:12 =40,828  km/h

29  Uwe Raab  PDM-Concorde01h 06' 55"+  00:04:15 =40,797  km/h

30  Andy Hampsten  7 Eleven-Hoonved01h 07' 02"+  00:04:22 =40,726  km/h

31  Jerôme Simon  Z01h 07' 05"+  00:04:25 =40,696  km/h

32  Claude Criquielion  Lotto-Super Club01h 07' 06"+  00:04:26 =40,686  km/h

33  Gerrit De Vries  Buckler01h 07' 08"+  00:04:28 =40,665  km/h

34  Herminio Diaz Zabala  O.N.C.E.01h 07' 08"+  00:04:28 =40,665  km/h

35  Dimitri Konychev  Alfa Lum01h 07' 11"+  00:04:31 =40,635  km/h

36  Atle Kvå lsvoll  Z01h 07' 14"+  00:04:34 =40,605  km/h

37  Phil Anderson  TVM01h 07' 22"+  00:04:42 =40,524  km/h

38  Gilbert Duclos-Lassalle  Z01h 07' 25"+  00:04:45 =40,494  km/h

39  Jelle Nijdam  Buckler01h 07' 28"+  00:04:48 =40,464  km/h

40  Charly Mottet  R.M.O.-Mavic-Liberia01h 07' 30"+  00:04:50 =40,444  km/h

41  Alessandro Giannelli  Carrera Jeans-Vagabond01h 07' 30"+  00:04:50 =40,444  km/h

42  Óscar Vargas  Ryalcao-Postobon01h 07' 32"+  00:04:52 =40,424  km/h

43  Frans Maassen  Buckler01h 07' 47"+  00:05:07 =40,275  km/h

44  Jan Schur  Chateau d'Ax01h 07' 53"+  00:05:13 =40,216  km/h

45  Marc Sergeant  Panasonic-Sportlife01h 07' 54"+  00:05:14 =40,206  km/h

46  Jean-Claude Colotti  R.M.O.-Mavic-Liberia01h 07' 59"+  00:05:19 =40,157  km/h

47  Reynel Montoya  Ryalcao-Postobon01h 08' 00"+  00:05:20 =40,147  km/h

48  Stephen Roche  Histor-Sigma01h 08' 01"+  00:05:21 =40,137  km/h

49  Norman Alvis  7 Eleven-Hoonved01h 08' 02"+  00:05:22 =40,127  km/h

50  Gerrit Solleveld  Buckler01h 08' 03"+  00:05:23 =40,118  km/h

51  Andrew Bishop  7 Eleven-Hoonved01h 08' 04"+  00:05:24 =40,108  km/h

52  Pascal Lino  R.M.O.-Mavic-Liberia01h 08' 06"+  00:05:26 =40,088  km/h

53  Søren Lilholt  Histor-Sigma01h 08' 12"+  00:05:32 =40,029  km/h

54  Álvaro Mejía  Ryalcao-Postobon01h 08' 14"+  00:05:34 =40,010  km/h

55  Laurent Pillon  Histor-Sigma01h 08' 24"+  00:05:44 =39,912  km/h

56  Steven Rooks  Panasonic-Sportlife01h 08' 29"+  00:05:49 =39,864  km/h

57  Carlo Bomans  Weinmann-La Suisse-S.M.M. Uster01h 08' 31"+  00:05:51 =39,844  km/h

58  Jörg Müller  TVM01h 08' 31"+  00:05:51 =39,844  km/h

59  Beat Breu  Weinmann-La Suisse-S.M.M. Uster01h 08' 31"+  00:05:51 =39,844  km/h

60  Pascal Simon  Castorama-Raleigh01h 08' 36"+  00:05:56 =39,796  km/h

61  Jos Haex  Lotto-Super Club01h 08' 38"+  00:05:58 =39,777  km/h

62  Guido Bontempi  Carrera Jeans-Vagabond01h 08' 39"+  00:05:59 =39,767  km/h

63  Frédéric Brun  R.M.O.-Mavic-Liberia01h 08' 39"+  00:05:59 =39,767  km/h

64  Jean-Claude Bagot  R.M.O.-Mavic-Liberia01h 08' 41"+  00:06:01 =39,748  km/h

65  Vasily Zhdanov  Alfa Lum01h 08' 43"+  00:06:03 =39,728  km/h

66  Mauro Gianetti  Helvetia-La Suisse01h 08' 50"+  00:06:10 =39,661  km/h

67  Miguel Angel Martinez  O.N.C.E.01h 08' 52"+  00:06:12 =39,642  km/h

68  Gerardo Moncada  Ryalcao-Postobon01h 08' 55"+  00:06:15 =39,613  km/h

69  Piotr Ugrumov  Alfa Lum01h 08' 56"+  00:06:16 =39,603  km/h

70  Maarten Ducrot  TVM01h 09' 00"+  00:06:20 =39,565  km/h

71  Ron Kiefel  7 Eleven-Hoonved01h 09' 01"+  00:06:21 =39,556  km/h

72  Patrick Robeet  Weinmann-La Suisse-S.M.M. Uster01h 09' 06"+  00:06:26 =39,508  km/h

73  Denis Roux  Toshiba01h 09' 11"+  00:06:31 =39,460  km/h

74  Ronan Pensec  Z01h 09' 13"+  00:06:33 =39,441  km/h

75  Nelson Rodríguez  Kelme-Ibexpress01h 09' 16"+  00:06:36 =39,413  km/h

76  Dominique Arnaud  Banesto01h 09' 16"+  00:06:36 =39,413  km/h

77  Djamolidine Abduzhaparov  Alfa Lum01h 09' 20"+  00:06:40 =39,375  km/h

78  Nestor Mora  Kelme-Ibexpress01h 09' 20"+  00:06:40 =39,375  km/h

79  Marino Alonso  Banesto01h 09' 24"+  00:06:44 =39,337  km/h

80  Alberto Elli  Ariostea01h 09' 26"+  00:06:46 =39,318  km/h

81  Edwig Van Hooydonck  Buckler01h 09' 26"+  00:06:46 =39,318  km/h

82  Guy Nulens  Panasonic-Sportlife01h 09' 28"+  00:06:48 =39,299  km/h

83  Vincent Barteau  Castorama-Raleigh01h 09' 29"+  00:06:49 =39,290  km/h

84  Alexandre Trubine  Alfa Lum01h 09' 31"+  00:06:51 =39,271  km/h

85  Jos Van Aert  PDM-Concorde01h 09' 34"+  00:06:54 =39,243  km/h

86  Toine  Poels  Buckler01h 09' 36"+  00:06:56 =39,224  km/h

87  Olaf Ludwig  Panasonic-Sportlife01h 09' 39"+  00:06:59 =39,196  km/h

88  Adriano Baffi  Ariostea01h 09' 40"+  00:07:00 =39,187  km/h

89  Sean Yates  7 Eleven-Hoonved01h 09' 41"+  00:07:01 =39,177  km/h

90  Thomas Wegmüller  Weinmann-La Suisse-S.M.M. Uster01h 09' 43"+  00:07:03 =39,158  km/h

91  Bruno Cornillet  Z01h 09' 48"+  00:07:08 =39,112  km/h

92  Thierry Claveyrolat  R.M.O.-Mavic-Liberia01h 09' 49"+  00:07:09 =39,102  km/h

93  Valerio Piva  Ariostea01h 09' 49"+  00:07:09 =39,102  km/h

94  Wilfried Peeters  Histor-Sigma01h 09' 51"+  00:07:11 =39,084  km/h

95  Johan Museeuw  Lotto-Super Club01h 09' 52"+  00:07:12 =39,074  km/h

96  Carlos Jaramillo  Ryalcao-Postobon01h 09' 52"+  00:07:12 =39,074  km/h

97  Rudy Dhaenens  PDM-Concorde01h 09' 56"+  00:07:16 =39,037  km/h

98  Jan Goessens  Weinmann-La Suisse-S.M.M. Uster01h 09' 57"+  00:07:17 =39,028  km/h

99  Henri Manders  Helvetia-La Suisse01h 09' 58"+  00:07:18 =39,019  km/h

100  José Rodriguez  Seur01h 09' 59"+  00:07:19 =39,009  km/h

101  Vicente Ridaura  Seur01h 09' 59"+  00:07:19 =39,009  km/h

102  Mario Kummer  Chateau d'Ax01h 10' 00"+  00:07:20 =39,000  km/h

103  Maximilian Sciandri  Carrera Jeans-Vagabond01h 10' 07"+  00:07:27 =38,935  km/h

104  Juan Martinez Oliver  Banesto01h 10' 08"+  00:07:28 =38,926  km/h

105  François Lemarchand  Z01h 10' 09"+  00:07:29 =38,917  km/h

106  Anselmo Fuerte  O.N.C.E.01h 10' 09"+  00:07:29 =38,917  km/h

107  Antonio Diaz  Kelme-Ibexpress01h 10' 09"+  00:07:29 =38,917  km/h

108  Jean-Claude Leclercq  Helvetia-La Suisse01h 10' 10"+  00:07:30 =38,907  km/h

109  Giovanni Fidanza  Chateau d'Ax01h 10' 16"+  00:07:36 =38,852  km/h

110  Sean Kelly  PDM-Concorde01h 10' 18"+  00:07:38 =38,834  km/h

111  Willem Van Eynde  Lotto-Super Club01h 10' 20"+  00:07:40 =38,815  km/h

112  Juan Castillo  Ryalcao-Postobon01h 10' 22"+  00:07:42 =38,797  km/h

113  Patrick Tolhoek  Buckler01h 10' 30"+  00:07:50 =38,723  km/h

114  Adrie Van Der Poel  Weinmann-La Suisse-S.M.M. Uster01h 10' 32"+  00:07:52 =38,705  km/h

115  Bruno Cenghialta  Ariostea01h 10' 32"+  00:07:52 =38,705  km/h

116  Thierry Laurent  R.M.O.-Mavic-Liberia01h 10' 33"+  00:07:53 =38,696  km/h

117  Laurent Biondi  Histor-Sigma01h 10' 34"+  00:07:54 =38,687  km/h

118  Peter Winnen  Buckler01h 10' 38"+  00:07:58 =38,650  km/h

119  Peter De Clercq  Lotto-Super Club01h 10' 39"+  00:07:59 =38,641  km/h

120  Christian Chaubet  Toshiba01h 10' 40"+  00:08:00 =38,632  km/h

121  Guiseppe Calcaterra  Chateau d'Ax01h 10' 42"+  00:08:02 =38,614  km/h

122  Gert Jakobs  PDM-Concorde01h 10' 44"+  00:08:04 =38,596  km/h

123  Peter Roes  Lotto-Super Club01h 10' 47"+  00:08:07 =38,568  km/h

124  Massimo Ghirotto  Carrera Jeans-Vagabond01h 10' 49"+  00:08:09 =38,550  km/h

125  Giancarlo Perini  Carrera Jeans-Vagabond01h 10' 54"+  00:08:14 =38,505  km/h

126  José Ángel Sarrapio  Kelme-Ibexpress01h 10' 55"+  00:08:15 =38,496  km/h

127  Kurt Steinmann  Weinmann-La Suisse-S.M.M. Uster01h 10' 55"+  00:08:15 =38,496  km/h

128  José Urea  Seur01h 10' 56"+  00:08:16 =38,487  km/h

129  Jan Siemons  TVM01h 11' 00"+  00:08:20 =38,451  km/h

130  William Pulido  Ryalcao-Postobon01h 11' 02"+  00:08:22 =38,433  km/h

131  Thierry Marie  Castorama-Raleigh01h 11' 07"+  00:08:27 =38,388  km/h

132  Roberto Gusmeroli  Chateau d'Ax01h 11' 07"+  00:08:27 =38,388  km/h

133  Davis Phinney  7 Eleven-Hoonved01h 11' 13"+  00:08:33 =38,334  km/h

134  Alberto Volpi  Chateau d'Ax01h 11' 13"+  00:08:33 =38,334  km/h

135  Pablo Moreno  Seur01h 11' 13"+  00:08:33 =38,334  km/h

136  Jesús Rosado  Kelme-Ibexpress01h 11' 18"+  00:08:38 =38,289  km/h

137  Roland Le Clerc  Toshiba01h 11' 22"+  00:08:42 =38,253  km/h

138  Davide Cassani  Ariostea01h 11' 25"+  00:08:45 =38,226  km/h

139  Hendrik Redant  Lotto-Super Club01h 11' 34"+  00:08:54 =38,146  km/h

140  Andreas Kappes  Toshiba01h 11' 41"+  00:09:01 =38,084  km/h

141  Rodolfo Massi  Ariostea01h 11' 44"+  00:09:04 =38,058  km/h

142  Abelardo Rondón  Banesto01h 11' 52"+  00:09:12 =37,987  km/h

143  Erich Mächler  Carrera Jeans-Vagabond01h 11' 55"+  00:09:15 =37,961  km/h

144  Michel Vermote  R.M.O.-Mavic-Liberia01h 11' 55"+  00:09:15 =37,961  km/h

145  Nikolai Golovatenko  Alfa Lum01h 11' 56"+  00:09:16 =37,952  km/h

146  Martin Schalkers  TVM01h 11' 57"+  00:09:17 =37,943  km/h

147  Marcello Siboni  Ariostea01h 11' 59"+  00:09:19 =37,925  km/h

148  Mauro-Antonio Santaromita  Chateau d'Ax01h 12' 11"+  00:09:31 =37,820  km/h

149  Eric Van Lancker  Panasonic-Sportlife01h 12' 19"+  00:09:39 =37,751  km/h

150  Jesus Rodriguez Magro  Banesto01h 12' 22"+  00:09:42 =37,725  km/h

151  Bob Roll  7 Eleven-Hoonved01h 12' 36"+  00:09:56 =37,603  km/h

152  Patrick Verschueren  Lotto-Super Club01h 12' 47"+  00:10:07 =37,509  km/h

153  Antonio Espejo  Kelme-Ibexpress01h 12' 51"+  00:10:11 =37,474  km/h

154  Acacio da Silva  Carrera Jeans-Vagabond01h 13' 27"+  00:10:47 =37,168  km/h

155  Jean-Paul van Poppel  Panasonic-Sportlife01h 13' 55"+  00:11:15 =36,933  km/h

156  Pablo Hernández  Ryalcao-Postobon01h 14' 45"+  00:12:05 =36,522  km/h


Todays birthdays.

1877 • Julien Girbe
1886 • Robert Chopard
1896 • Charles Loew
1906 • Gottlieb Wanzenried
1909 • Eugene Le Goff
1930 • François Mahé
1951 • Bernard Bourreau
1967 • Jesús Rosado
1971 • Tom Steels

 

Optimized for Chrome - Edge
and Opera browsers.